[[{"header":{"parameterUnit":"m.s-1","parameterCategory":1,"la1":30.2991,"la2":30.254,"lo1":-89.0895,"lo2":-89.0444,"dy":0.0017,"dx":0.0017,"nx":28,"ny":28,"refTime":"2025-11-14T09:00:00:Z","depth":0,"parameterNumber":2,"parameterNumberName":"U-component_of_WINDS"},"data":[0,0,0,0,0,0,0,0,0,0,0,0,0,0,0,0,0,0,0,0,0,0,0,0,0,0,0,0,0,0,0,0,0,0,0,0,0,0,0,0,0,0,0,0,0,0,0,0,0,0,0,0,0,0,0,0,0,0,-0.6164,-0.6164,0,-0.6218,-0.6218,-0.6219,-0.6238,-0.6238,-0.6238,-0.6238,-0.6294,-0.6296,-0.6298,0,0,0,0,0,0,0,0,0,0,0,0,0,-0.6077,-0.6079,-0.6164,-0.6164,-0.6165,-0.6218,-0.6219,-0.6219,-0.6238,-0.6238,-0.6238,-0.6237,-0.6294,-0.6296,-0.6298,0,0,0,0,0,0,0,0,0,0,0,0,0,-0.6121,-0.6079,-0.6164,-0.6181,-0.6183,-0.6218,-0.6219,-0.6219,-0.6238,-0.6238,-0.6238,-0.6237,-0.6293,-0.6295,-0.6298,-0.632,0,0,-0.6306,-0.6307,0,0,0,0,0,0,0,0,-0.6119,-0.6125,-0.6178,-0.618,-0.6182,-0.6221,-0.6209,-0.6253,-0.6238,-0.6217,-0.6238,-0.6237,-0.627,-0.6275,-0.6285,-0.6323,-0.6325,-0.6306,-0.6308,-0.6309,-0.6309,0,0,0,0,0,0,0,-0.6116,-0.6122,-0.6185,-0.6178,-0.6181,-0.6186,-0.6192,-0.6217,-0.6245,-0.6219,-0.6221,-0.6227,-0.6271,-0.6283,-0.6287,-0.6326,-0.6306,-0.6308,-0.631,-0.6311,-0.6382,-0.6382,0,0,0,0,0,0,-0.611,-0.612,-0.6184,-0.6187,-0.6149,-0.6188,-0.6194,-0.6209,-0.6245,-0.625,-0.6227,-0.6227,-0.6279,-0.6284,-0.6289,-0.6316,-0.6309,-0.6311,-0.6313,-0.6382,-0.6382,-0.6383,0,0,0,0,0,0,-0.6108,-0.6115,-0.6181,-0.6154,-0.6162,-0.619,-0.6206,-0.621,-0.6222,-0.625,-0.6256,-0.6234,-0.6279,-0.6285,-0.6312,-0.6318,-0.6312,-0.6315,-0.6381,-0.6382,-0.6382,-0.6371,0,0,0,0,0,0,-0.6105,-0.6114,-0.6123,-0.6154,-0.6164,-0.6203,-0.6206,-0.6211,-0.6226,-0.6227,-0.6258,-0.6263,-0.6279,-0.6308,-0.6314,-0.6322,-0.6316,-0.6381,-0.6382,-0.6382,-0.6371,-0.6371,-0.6371,0,0,0,0,0,-0.6102,-0.6118,-0.6123,-0.6131,-0.6175,-0.6203,-0.6209,-0.6227,-0.6226,-0.6235,-0.6253,-0.6262,-0.6316,-0.631,-0.6318,-0.6326,-0.6381,-0.6381,-0.6382,-0.6371,-0.6371,-0.6371,0,0,0,0,0,0,-0.6089,-0.6123,-0.6129,-0.6156,-0.6176,-0.6207,-0.6218,-0.6227,-0.6249,-0.6249,-0.627,-0.6277,-0.6301,-0.6316,-0.6309,-0.6348,-0.6349,-0.6351,-0.6338,-0.6338,-0.6338,-0.6334,-0.6319,0,0,0,0,0,-0.6089,-0.6109,-0.6137,-0.6158,-0.6168,-0.6191,-0.6204,-0.6216,-0.6239,-0.6248,-0.6268,-0.629,-0.6312,-0.6326,-0.6348,-0.6373,-0.638,-0.6382,-0.6382,-0.6382,-0.6384,-0.6398,-0.6399,-0.6385,-0.6385,-0.6385,0,0,-0.609,-0.6111,-0.6122,-0.6156,-0.6174,-0.6193,-0.6199,-0.622,-0.6235,-0.6251,-0.6277,-0.6292,-0.6318,-0.6343,-0.6356,-0.6357,-0.6389,-0.6383,-0.6383,-0.6385,-0.6399,-0.64,-0.6401,-0.6386,-0.6386,-0.6386,0,0,-0.6101,-0.6119,-0.6138,-0.6154,-0.618,-0.6195,-0.62,-0.6229,-0.6239,-0.6265,-0.6277,-0.6295,-0.6333,-0.635,-0.6364,-0.638,-0.6388,-0.6386,-0.6387,-0.64,-0.6401,-0.6402,-0.6407,-0.6409,-0.6388,-0.6388,-0.6388,0,-0.6099,-0.6129,-0.6146,-0.6166,-0.6181,-0.6195,-0.6214,-0.623,-0.6262,-0.6271,-0.6272,-0.6318,-0.6336,-0.6366,-0.6369,-0.638,-0.6385,-0.6383,-0.6399,-0.6401,-0.6402,-0.6407,-0.6409,-0.6387,-0.6387,-0.6387,-0.6388,0,-0.6124,-0.6145,-0.6157,-0.6186,-0.6202,-0.6221,-0.6241,-0.6255,-0.6265,-0.628,-0.6305,-0.6327,-0.6353,-0.6361,-0.6371,-0.6391,-0.6391,-0.6395,-0.6396,-0.6402,-0.6407,-0.641,-0.6387,-0.6387,-0.6387,-0.6387,0,0,-0.613,-0.6167,-0.6171,-0.6184,-0.6213,-0.623,-0.6249,-0.6274,-0.6285,-0.6306,-0.6323,-0.6353,-0.6356,-0.6372,-0.6384,-0.6395,-0.6405,-0.6398,-0.6399,-0.6398,-0.6428,-0.6424,-0.6426,-0.6411,-0.6411,-0.6412,-0.6426,0,-0.6145,-0.618,-0.6195,-0.6223,-0.6242,-0.6255,-0.6272,-0.6292,-0.6306,-0.6324,-0.6339,-0.636,-0.6364,-0.6373,-0.6384,-0.6402,-0.6412,-0.6401,-0.6427,-0.6427,-0.642,-0.6429,-0.6426,-0.6438,-0.6428,-0.6428,-0.6428,0,-0.6167,-0.6187,-0.6216,-0.6242,-0.625,-0.6265,-0.6288,-0.6305,-0.6327,-0.6336,-0.6353,-0.6364,-0.6385,-0.6384,-0.6412,-0.6404,-0.6416,-0.6426,-0.6426,-0.643,-0.6428,-0.6432,-0.6443,-0.6444,-0.6432,-0.6431,-0.6431,0,-0.6167,-0.6201,-0.6223,-0.6234,-0.6264,-0.6274,-0.6287,-0.6309,-0.6322,-0.6342,-0.6351,-0.6374,-0.6386,-0.6403,-0.642,-0.6418,-0.6446,-0.6447,-0.6455,-0.6454,-0.646,-0.646,-0.6472,-0.6468,-0.6468,-0.6468,-0.6468,0,-0.6182,-0.6199,-0.6224,-0.6237,-0.6257,-0.6274,-0.6293,-0.6307,-0.6326,-0.6342,-0.6355,-0.637,-0.6392,-0.6409,-0.6422,-0.6443,-0.6449,-0.6457,-0.646,-0.6456,-0.6455,-0.6464,-0.6463,-0.6468,-0.6468,-0.6468,-0.6468,0,-0.6186,-0.6203,-0.6227,-0.6253,-0.626,-0.6273,-0.6296,-0.6309,-0.6323,-0.6343,-0.6349,-0.6371,-0.6393,-0.6411,-0.6439,-0.6448,-0.647,-0.6474,-0.6462,-0.6464,-0.647,-0.6469,-0.6489,-0.6492,-0.6485,-0.6485,-0.6485,0,-0.6194,-0.6207,-0.6234,-0.6246,-0.6258,-0.6277,-0.629,-0.6307,-0.632,-0.6345,-0.6356,-0.6378,-0.6396,-0.643,-0.6448,-0.647,-0.6474,-0.648,-0.6478,-0.6472,-0.6474,-0.6473,-0.6474,-0.648,-0.648,-0.648,-0.648,0,-0.6206,-0.6214,-0.6232,-0.6253,-0.6268,-0.6286,-0.6304,-0.6312,-0.6333,-0.6347,-0.6368,-0.6382,-0.6411,-0.6432,-0.6455,-0.6469,-0.6478,-0.648,-0.6483,-0.6478,-0.6471,-0.6475,-0.6462,-0.648,-0.648,-0.648,-0.648,-0.648,-0.6212,-0.6225,-0.6245,-0.6265,-0.628,-0.6296,-0.6309,-0.6324,-0.6342,-0.6366,-0.6375,-0.6397,-0.6417,-0.6449,-0.6462,-0.6479,-0.6481,-0.6485,-0.6486,-0.6487,-0.6486,-0.6468,-0.6484,-0.6484,-0.6484,-0.6484,-0.6484,0,-0.6225,-0.6238,-0.6256,-0.628,-0.6296,-0.6301,-0.6321,-0.6334,-0.6352,-0.637,-0.6388,-0.6412,-0.6432,-0.6452,-0.6474,-0.6483,-0.6488,-0.6489,-0.6488,-0.6491,-0.6484,-0.6479,-0.6484,-0.6484,-0.6484,-0.6484,-0.6484,-0.6484,-0.6233,-0.6254,-0.6264,-0.6291,-0.6305,-0.6326,-0.6336,-0.6351,-0.6365,-0.6391,-0.6408,-0.642,-0.6439,-0.6462,-0.6481,-0.6486,-0.6493,-0.6492,-0.6499,-0.6492,-0.6492,-0.6491,-0.6487,-0.6494,-0.6494,-0.6505,-0.6505,-0.6505]},{"header":{"parameterUnit":"m.s-1","parameterCategory":1,"la1":30.2991,"la2":30.254,"lo1":-89.0895,"lo2":-89.0444,"dy":0.0017,"dx":0.0017,"nx":28,"ny":28,"refTime":"2025-11-14T09:00:00:Z","depth":0,"parameterNumber":3,"parameterNumberName":"V-component_of_WINDS"},"data":[0,0,0,0,0,0,0,0,0,0,0,0,0,0,0,0,0,0,0,0,0,0,0,0,0,0,0,0,0,0,0,0,0,0,0,0,0,0,0,0,0,0,0,0,0,0,0,0,0,0,0,0,0,0,0,0,0,0,-0.5396,-0.5396,0,-0.5391,-0.5391,-0.539,-0.5365,-0.5364,-0.5364,-0.5363,-0.5358,-0.5358,-0.5359,0,0,0,0,0,0,0,0,0,0,0,0,0,-0.5386,-0.5386,-0.5396,-0.5396,-0.5396,-0.5391,-0.539,-0.539,-0.5365,-0.5364,-0.5364,-0.5363,-0.5358,-0.5358,-0.5359,0,0,0,0,0,0,0,0,0,0,0,0,0,-0.5386,-0.5386,-0.5396,-0.5383,-0.5382,-0.5391,-0.539,-0.539,-0.5365,-0.5364,-0.5363,-0.5363,-0.5358,-0.5358,-0.5359,-0.5381,0,0,-0.5361,-0.5361,0,0,0,0,0,0,0,0,-0.5386,-0.5387,-0.5385,-0.5384,-0.5382,-0.5378,-0.5385,-0.5387,-0.5366,-0.5372,-0.5363,-0.5362,-0.5365,-0.5365,-0.5366,-0.538,-0.538,-0.5361,-0.5361,-0.5362,-0.5362,0,0,0,0,0,0,0,-0.5386,-0.5387,-0.5394,-0.5385,-0.5383,-0.5377,-0.5376,-0.5385,-0.5373,-0.5371,-0.5369,-0.5369,-0.5364,-0.5366,-0.5366,-0.538,-0.5361,-0.5361,-0.5362,-0.5362,-0.5412,-0.5413,0,0,0,0,0,0,-0.5388,-0.5387,-0.5394,-0.5394,-0.5382,-0.5378,-0.5377,-0.538,-0.5373,-0.5371,-0.5369,-0.5368,-0.5365,-0.5365,-0.5366,-0.539,-0.5362,-0.5362,-0.5362,-0.5411,-0.5412,-0.5413,0,0,0,0,0,0,-0.5388,-0.5389,-0.5394,-0.539,-0.539,-0.5379,-0.5383,-0.538,-0.5381,-0.5372,-0.537,-0.5373,-0.5364,-0.5365,-0.5377,-0.539,-0.5362,-0.5363,-0.541,-0.5411,-0.5413,-0.544,0,0,0,0,0,0,-0.5388,-0.5389,-0.5397,-0.539,-0.539,-0.5406,-0.5384,-0.5381,-0.5383,-0.538,-0.5375,-0.5373,-0.5364,-0.5376,-0.5378,-0.539,-0.5363,-0.5409,-0.541,-0.5412,-0.5438,-0.5443,-0.5446,0,0,0,0,0,-0.5388,-0.5405,-0.5398,-0.5399,-0.54,-0.5407,-0.5407,-0.5395,-0.5384,-0.5392,-0.5386,-0.5373,-0.5388,-0.5378,-0.5379,-0.5392,-0.5408,-0.541,-0.5412,-0.5437,-0.5442,-0.5446,0,0,0,0,0,0,-0.5414,-0.5404,-0.5396,-0.5412,-0.541,-0.5402,-0.5412,-0.5401,-0.5403,-0.5401,-0.5387,-0.5386,-0.54,-0.5397,-0.5386,-0.5413,-0.5396,-0.5398,-0.5414,-0.5419,-0.5423,-0.5423,-0.5364,0,0,0,0,0,-0.5422,-0.5428,-0.5419,-0.5434,-0.5434,-0.5423,-0.5426,-0.5417,-0.5415,-0.5414,-0.5409,-0.5408,-0.5412,-0.5415,-0.5419,-0.5438,-0.5436,-0.5447,-0.5451,-0.5455,-0.5457,-0.5467,-0.5472,-0.542,-0.542,-0.542,0,0,-0.5438,-0.5433,-0.5438,-0.5439,-0.5437,-0.5444,-0.5423,-0.5431,-0.5435,-0.5415,-0.5427,-0.5423,-0.5421,-0.5436,-0.5443,-0.5434,-0.5471,-0.5458,-0.546,-0.5461,-0.5469,-0.5474,-0.5479,-0.5422,-0.5421,-0.5421,0,0,-0.5471,-0.5468,-0.548,-0.5478,-0.5475,-0.5468,-0.5471,-0.5465,-0.5461,-0.5472,-0.5458,-0.5463,-0.5471,-0.547,-0.5471,-0.5503,-0.5491,-0.5505,-0.5525,-0.5535,-0.5539,-0.5543,-0.5554,-0.5558,-0.5507,-0.5507,-0.5507,0,-0.5491,-0.55,-0.5488,-0.5496,-0.5497,-0.5479,-0.5492,-0.5491,-0.5489,-0.549,-0.5481,-0.549,-0.5487,-0.5502,-0.551,-0.5511,-0.5514,-0.5505,-0.5539,-0.5543,-0.5546,-0.5557,-0.5561,-0.5509,-0.5508,-0.5508,-0.5508,0,-0.5526,-0.5532,-0.5542,-0.5541,-0.5543,-0.5554,-0.5543,-0.5547,-0.5538,-0.5532,-0.5543,-0.5539,-0.5542,-0.5545,-0.5536,-0.5559,-0.5553,-0.5542,-0.5525,-0.5553,-0.5563,-0.5567,-0.5511,-0.551,-0.551,-0.5509,0,0,-0.5575,-0.5566,-0.557,-0.5569,-0.5565,-0.5569,-0.5579,-0.5581,-0.5585,-0.5585,-0.5592,-0.56,-0.5589,-0.5589,-0.5581,-0.5589,-0.5615,-0.5576,-0.5576,-0.5584,-0.5639,-0.5648,-0.5653,-0.5607,-0.5608,-0.5609,-0.5639,0,-0.5606,-0.5622,-0.5611,-0.5629,-0.5634,-0.5618,-0.5626,-0.5624,-0.5619,-0.5623,-0.5618,-0.5623,-0.5608,-0.5608,-0.5616,-0.561,-0.5626,-0.5608,-0.5615,-0.5615,-0.5616,-0.5658,-0.5667,-0.5696,-0.5643,-0.5644,-0.5644,0,-0.5644,-0.5645,-0.5663,-0.5657,-0.566,-0.5667,-0.5668,-0.5673,-0.567,-0.5666,-0.5667,-0.5656,-0.5665,-0.5649,-0.5661,-0.5649,-0.5651,-0.5649,-0.565,-0.565,-0.5631,-0.5659,-0.5705,-0.571,-0.565,-0.565,-0.5649,0,-0.5678,-0.5684,-0.5696,-0.5695,-0.5689,-0.5695,-0.5692,-0.5689,-0.5691,-0.5692,-0.5693,-0.5695,-0.5697,-0.5699,-0.5689,-0.5678,-0.5703,-0.5685,-0.57,-0.57,-0.5706,-0.5705,-0.5753,-0.5707,-0.5707,-0.5707,-0.5707,0,-0.5714,-0.5726,-0.5711,-0.5718,-0.5731,-0.5718,-0.5731,-0.5727,-0.5724,-0.5731,-0.5716,-0.5723,-0.5709,-0.5714,-0.5707,-0.5718,-0.5719,-0.5716,-0.5713,-0.5717,-0.5717,-0.5718,-0.5716,-0.5708,-0.5708,-0.5708,-0.5708,0,-0.5754,-0.5744,-0.5756,-0.5749,-0.5747,-0.5757,-0.5751,-0.5757,-0.5751,-0.5759,-0.576,-0.575,-0.5755,-0.5746,-0.575,-0.5745,-0.5761,-0.5756,-0.5762,-0.576,-0.5775,-0.5773,-0.5824,-0.583,-0.5781,-0.5782,-0.5782,0,-0.5777,-0.5786,-0.5779,-0.5782,-0.5781,-0.5786,-0.5788,-0.5775,-0.5778,-0.5776,-0.5783,-0.5787,-0.5789,-0.5798,-0.5791,-0.5794,-0.5789,-0.5806,-0.5789,-0.5792,-0.5789,-0.5788,-0.5789,-0.581,-0.581,-0.5811,-0.5811,0,-0.582,-0.5814,-0.5817,-0.5819,-0.5822,-0.5822,-0.5822,-0.5825,-0.5812,-0.5816,-0.5821,-0.5823,-0.5827,-0.5831,-0.5832,-0.5829,-0.5818,-0.5817,-0.582,-0.5824,-0.5827,-0.5825,-0.5771,-0.5816,-0.5815,-0.5815,-0.5815,-0.5814,-0.5852,-0.5859,-0.5855,-0.5859,-0.5857,-0.5857,-0.5863,-0.5857,-0.5861,-0.5863,-0.5856,-0.5862,-0.586,-0.586,-0.5859,-0.5864,-0.5856,-0.5862,-0.5863,-0.5864,-0.5866,-0.5826,-0.5865,-0.5864,-0.5864,-0.5864,-0.5864,0,-0.5893,-0.589,-0.5894,-0.5894,-0.5897,-0.5886,-0.5885,-0.5888,-0.5894,-0.5893,-0.5895,-0.5901,-0.5904,-0.5898,-0.5901,-0.5906,-0.5901,-0.5907,-0.5907,-0.5906,-0.5873,-0.587,-0.5911,-0.5911,-0.5911,-0.5911,-0.5911,-0.5911,-0.5915,-0.5926,-0.5921,-0.5931,-0.5928,-0.5934,-0.5934,-0.5934,-0.5933,-0.5939,-0.5942,-0.5938,-0.5935,-0.5937,-0.594,-0.5938,-0.594,-0.5948,-0.5944,-0.5913,-0.5909,-0.5904,-0.5901,-0.5948,-0.5948,-0.5977,-0.5977,-0.5977]}]]